Time,TemperatureF,DewpointF,PressureIn,WindDirection,WindDirectionDegrees,WindSpeedMPH,WindSpeedGustMPH,Humidity,HourlyPrecipIn,Conditions,Clouds,dailyrainin,SoftwareType,DateUTC
2013-05-09 00:00:00,59.2,57.8,29.99,SE,129,0.0,0.0,95,0.03,-RA,,0.00,WeatherDisplay:10.37,2013-05-09 04:00:00,
2013-05-09 00:01:00,59.2,57.8,29.99,SE,129,0.0,0.0,95,0.03,-RA,,0.00,WeatherDisplay:10.37,2013-05-09 04:01:00,
2013-05-09 00:06:00,59.0,57.6,29.99,SE,129,0.0,0.0,95,0.04,-RA,,0.02,WeatherDisplay:10.37,2013-05-09 04:06:00,
2013-05-09 00:11:00,59.0,57.6,29.99,SE,129,2.3,3.5,95,0.05,-RA,,0.02,WeatherDisplay:10.37,2013-05-09 04:11:00,
2013-05-09 00:16:00,59.2,57.8,29.99,SE,129,2.3,3.5,95,0.06,-RA,,0.03,WeatherDisplay:10.37,2013-05-09 04:16:00,
2013-05-09 00:21:00,58.9,57.5,29.98,SE,129,0.0,3.5,95,0.00,-RA,,0.05,WeatherDisplay:10.37,2013-05-09 04:21:00,
2013-05-09 00:26:00,58.7,57.3,29.98,SE,129,0.0,0.0,95,0.02,-RA,,0.07,WeatherDisplay:10.37,2013-05-09 04:26:00,
2013-05-09 00:31:00,58.6,57.2,29.98,SE,129,0.0,0.0,95,0.03,-RA,,0.07,WeatherDisplay:10.37,2013-05-09 04:31:00,
2013-05-09 00:36:00,58.6,57.2,29.98,SE,129,0.0,0.0,95,0.03,-RA,,0.07,WeatherDisplay:10.37,2013-05-09 04:36:00,
2013-05-09 00:41:00,58.6,57.2,29.98,SE,129,0.0,0.0,95,0.02,-RA,,0.07,WeatherDisplay:10.37,2013-05-09 04:41:00,
2013-05-09 00:46:00,58.4,57.0,29.98,SE,129,0.1,0.0,95,0.01,-RA,,0.07,WeatherDisplay:10.37,2013-05-09 04:46:00,
2013-05-09 00:51:00,58.4,57.0,29.98,SE,129,0.0,1.2,95,0.02,RA,,0.08,WeatherDisplay:10.37,2013-05-09 04:51:00,
2013-05-09 00:56:00,58.4,57.0,29.98,SE,129,0.0,0.0,95,0.02,RA,,0.08,WeatherDisplay:10.37,2013-05-09 04:56:00,
2013-05-09 01:01:00,58.4,57.0,29.98,SE,129,0.0,0.0,95,0.08,OVC,,0.08,WeatherDisplay:10.37,2013-05-09 05:01:00,
2013-05-09 01:06:00,58.4,57.0,29.98,SE,129,0.0,0.0,95,0.07,OVC,,0.09,WeatherDisplay:10.37,2013-05-09 05:06:00,
2013-05-09 01:11:00,58.4,57.0,29.97,SE,129,0.0,0.0,95,0.08,-RA,,0.10,WeatherDisplay:10.37,2013-05-09 05:11:00,
2013-05-09 01:16:00,58.3,56.9,29.97,SE,129,0.0,0.0,95,0.08,-RA,,0.11,WeatherDisplay:10.37,2013-05-09 05:16:00,
2013-05-09 01:21:00,58.3,57.2,29.97,SE,129,0.0,0.0,96,0.08,-RA,,0.12,WeatherDisplay:10.37,2013-05-09 05:21:00,
2013-05-09 01:26:00,58.1,57.0,29.97,SE,129,0.0,0.0,96,0.07,-RA,,0.13,WeatherDisplay:10.37,2013-05-09 05:26:00,
2013-05-09 01:31:00,58.1,57.0,29.97,SE,129,0.0,0.0,96,0.06,RA,,0.13,WeatherDisplay:10.37,2013-05-09 05:31:00,
2013-05-09 01:36:00,58.1,57.0,29.96,SE,129,0.0,0.0,96,0.07,RA,,0.14,WeatherDisplay:10.37,2013-05-09 05:36:00,
2013-05-09 01:41:00,58.3,57.2,29.95,SE,129,0.0,0.0,96,0.07,RA,,0.14,WeatherDisplay:10.37,2013-05-09 05:41:00,
2013-05-09 01:46:00,58.1,57.0,29.95,SE,129,0.0,0.0,96,0.07,BKN,,0.14,WeatherDisplay:10.37,2013-05-09 05:46:00,
2013-05-09 01:51:00,58.1,57.0,29.95,SE,129,0.0,0.0,96,0.07,RA,,0.15,WeatherDisplay:10.37,2013-05-09 05:51:00,
2013-05-09 01:56:00,58.1,57.0,29.95,SE,129,0.0,0.0,96,0.07,RA,,0.15,WeatherDisplay:10.37,2013-05-09 05:56:00,
2013-05-09 02:01:00,58.3,57.2,29.95,SE,129,0.0,0.0,96,0.07,BKN,,0.15,WeatherDisplay:10.37,2013-05-09 06:01:00,
2013-05-09 02:06:00,58.1,57.0,29.95,SE,129,0.0,0.0,96,0.06,BKN,,0.15,WeatherDisplay:10.37,2013-05-09 06:06:00,
2013-05-09 02:11:00,58.1,57.0,29.95,SE,129,0.0,0.0,96,0.05,SCT,,0.15,WeatherDisplay:10.37,2013-05-09 06:11:00,
2013-05-09 02:16:00,58.1,57.0,29.95,SE,129,0.0,0.0,96,0.04,SCT,,0.15,WeatherDisplay:10.37,2013-05-09 06:16:00,
2013-05-09 02:21:00,58.1,57.0,29.95,SE,129,0.0,0.0,96,0.03,SCT,,0.15,WeatherDisplay:10.37,2013-05-09 06:21:00,
2013-05-09 02:26:00,58.1,57.0,29.95,SE,129,0.0,0.0,96,0.02,SCT,,0.15,WeatherDisplay:10.37,2013-05-09 06:26:00,
2013-05-09 02:31:00,58.0,56.9,29.95,SE,129,0.0,0.0,96,0.02,SCT,,0.15,WeatherDisplay:10.37,2013-05-09 06:31:00,
2013-05-09 02:37:00,57.8,56.7,29.95,SE,129,0.0,0.0,96,0.01,SCT,,0.15,WeatherDisplay:10.37,2013-05-09 06:37:00,
2013-05-09 02:42:00,57.8,56.7,29.95,SE,129,0.0,0.0,96,0.01,SCT,,0.15,WeatherDisplay:10.37,2013-05-09 06:42:00,
2013-05-09 02:47:00,57.8,56.7,29.95,SE,129,0.0,0.0,96,0.01,SCT,,0.15,WeatherDisplay:10.37,2013-05-09 06:47:00,
2013-05-09 02:52:00,57.8,56.7,29.95,SE,129,0.0,0.0,96,0.00,SCT,,0.15,WeatherDisplay:10.37,2013-05-09 06:52:00,
2013-05-09 02:57:00,57.8,56.7,29.95,SE,129,0.0,0.0,96,0.00,SCT,,0.15,WeatherDisplay:10.37,2013-05-09 06:57:00,
2013-05-09 03:02:00,57.6,56.5,29.95,SE,129,0.0,0.0,96,0.00,SCT,,0.15,WeatherDisplay:10.37,2013-05-09 07:02:00,
2013-05-09 03:07:00,57.5,56.4,29.95,SE,129,0.0,0.0,96,0.00,SCT,,0.15,WeatherDisplay:10.37,2013-05-09 07:07:00,
2013-05-09 03:12:00,57.3,56.2,29.95,SE,129,0.0,0.0,96,0.00,SCT,,0.15,WeatherDisplay:10.37,2013-05-09 07:12:00,
2013-05-09 03:17:00,57.3,56.2,29.94,SE,129,0.0,0.0,96,0.00,SCT,,0.15,WeatherDisplay:10.37,2013-05-09 07:17:00,
2013-05-09 03:22:00,57.3,56.2,29.94,SE,129,0.0,0.0,96,0.00,SCT,,0.15,WeatherDisplay:10.37,2013-05-09 07:22:00,
2013-05-09 03:27:00,57.5,56.4,29.94,SE,129,0.0,0.0,96,0.00,SCT,,0.15,WeatherDisplay:10.37,2013-05-09 07:27:00,
2013-05-09 03:32:00,57.5,56.4,29.94,SE,129,0.0,0.0,96,0.00,SCT,,0.15,WeatherDisplay:10.37,2013-05-09 07:32:00,
2013-05-09 03:37:00,57.3,56.2,29.94,SE,129,0.0,0.0,96,0.00,SCT,,0.15,WeatherDisplay:10.37,2013-05-09 07:37:00,
2013-05-09 03:42:00,57.3,56.2,29.94,SE,129,0.0,0.0,96,0.00,SCT,,0.15,WeatherDisplay:10.37,2013-05-09 07:42:00,
2013-05-09 03:47:00,57.3,56.2,29.94,SE,129,0.0,0.0,96,0.00,SCT,,0.15,WeatherDisplay:10.37,2013-05-09 07:47:00,
2013-05-09 03:52:00,57.2,56.1,29.94,SE,129,0.0,0.0,96,0.00,BKN,,0.15,WeatherDisplay:10.37,2013-05-09 07:52:00,
2013-05-09 03:57:00,57.2,56.1,29.94,SE,129,0.0,0.0,96,0.00,BKN,,0.15,WeatherDisplay:10.37,2013-05-09 07:57:00,
2013-05-09 04:02:00,57.2,56.1,29.94,SE,129,0.0,0.0,96,0.00,BKN,,0.15,WeatherDisplay:10.37,2013-05-09 08:02:00,
2013-05-09 04:07:00,57.3,56.2,29.94,SE,129,0.0,0.0,96,0.00,BKN,,0.15,WeatherDisplay:10.37,2013-05-09 08:07:00,
2013-05-09 04:12:00,57.2,56.1,29.94,SE,129,0.0,0.0,96,0.00,BKN,,0.15,WeatherDisplay:10.37,2013-05-09 08:12:00,
2013-05-09 04:17:00,57.2,56.1,29.94,SE,129,0.0,0.0,96,0.00,BKN,,0.15,WeatherDisplay:10.37,2013-05-09 08:17:00,
2013-05-09 04:22:00,57.3,56.2,29.94,SE,129,0.0,0.0,96,0.00,BKN,,0.15,WeatherDisplay:10.37,2013-05-09 08:22:00,
2013-05-09 04:27:00,57.2,56.1,29.94,SE,129,0.0,0.0,96,0.00,BKN,,0.15,WeatherDisplay:10.37,2013-05-09 08:27:00,
2013-05-09 04:32:00,56.9,55.8,29.94,SE,129,0.0,0.0,96,0.00,CLR,,0.15,WeatherDisplay:10.37,2013-05-09 08:32:00,
2013-05-09 04:37:00,56.5,55.4,29.94,WNW,294,1.9,3.5,96,0.00,CLR,,0.15,WeatherDisplay:10.37,2013-05-09 08:37:00,
2013-05-09 04:42:00,55.9,54.8,29.94,WNW,294,0.0,0.0,96,0.00,CLR,,0.15,WeatherDisplay:10.37,2013-05-09 08:42:00,
2013-05-09 04:47:00,55.9,54.8,29.94,WNW,294,0.0,0.0,96,0.00,CLR,,0.15,WeatherDisplay:10.37,2013-05-09 08:47:00,
2013-05-09 04:52:00,55.7,54.6,29.94,WNW,294,0.0,0.0,96,0.00,,,0.15,WeatherDisplay:10.37,2013-05-09 08:52:00,
2013-05-09 04:57:00,55.9,54.8,29.94,WNW,294,0.0,0.0,96,0.00,,,0.15,WeatherDisplay:10.37,2013-05-09 08:57:00,
2013-05-09 05:02:00,55.9,55.1,29.94,WNW,294,0.0,0.0,97,0.00,,,0.15,WeatherDisplay:10.37,2013-05-09 09:02:00,
2013-05-09 05:07:00,55.7,54.6,29.94,WNW,294,0.0,0.0,96,0.00,,,0.15,WeatherDisplay:10.37,2013-05-09 09:07:00,
2013-05-09 05:12:00,55.1,54.0,29.94,WNW,294,0.0,0.0,96,0.00,,,0.15,WeatherDisplay:10.37,2013-05-09 09:12:00,
2013-05-09 05:17:00,55.3,54.2,29.94,WNW,294,0.0,0.0,96,0.00,,,0.15,WeatherDisplay:10.37,2013-05-09 09:17:00,
2013-05-09 05:22:00,55.1,54.0,29.94,WNW,294,0.0,0.0,96,0.00,,,0.15,WeatherDisplay:10.37,2013-05-09 09:22:00,
2013-05-09 05:27:00,55.3,54.5,29.94,WNW,294,0.0,0.0,97,0.00,,,0.15,WeatherDisplay:10.37,2013-05-09 09:27:00,
2013-05-09 05:32:00,55.4,54.6,29.94,NNW,346,0.0,1.2,97,0.00,,,0.15,WeatherDisplay:10.37,2013-05-09 09:32:00,
2013-05-09 05:37:00,55.9,55.1,29.94,NNW,346,0.0,0.0,97,0.00,,,0.15,WeatherDisplay:10.37,2013-05-09 09:37:00,
2013-05-09 05:42:00,56.0,55.2,29.94,NNW,346,0.0,1.2,97,0.00,,,0.15,WeatherDisplay:10.37,2013-05-09 09:42:00,
2013-05-09 05:47:00,55.9,55.1,29.94,NNW,346,0.0,0.0,97,0.00,,,0.15,WeatherDisplay:10.37,2013-05-09 09:47:00,
2013-05-09 05:52:00,55.9,55.1,29.94,NNW,346,0.0,0.0,97,0.00,,,0.15,WeatherDisplay:10.37,2013-05-09 09:52:00,
2013-05-09 05:57:00,55.4,54.6,29.94,NNW,346,0.0,0.0,97,0.00,,,0.15,WeatherDisplay:10.37,2013-05-09 09:57:00,
2013-05-09 06:02:00,55.0,54.2,29.94,NNW,346,0.0,0.0,97,0.00,,,0.15,WeatherDisplay:10.37,2013-05-09 10:02:00,
2013-05-09 06:07:00,54.8,54.0,29.94,NNW,346,0.0,0.0,97,0.00,,,0.15,WeatherDisplay:10.37,2013-05-09 10:07:00,
2013-05-09 06:12:00,54.2,53.1,29.94,NNW,346,0.0,0.0,96,0.00,CLR,,0.15,WeatherDisplay:10.37,2013-05-09 10:12:00,
2013-05-09 06:17:00,53.9,53.1,29.95,NNW,346,0.0,0.0,97,0.00,CLR,,0.15,WeatherDisplay:10.37,2013-05-09 10:17:00,
2013-05-09 06:22:00,53.6,52.8,29.95,NNW,346,0.0,0.0,97,0.00,CLR,,0.15,WeatherDisplay:10.37,2013-05-09 10:22:00,
2013-05-09 06:27:00,53.6,52.8,29.95,NNW,346,0.0,0.0,97,0.00,CLR,,0.15,WeatherDisplay:10.37,2013-05-09 10:27:00,
2013-05-09 06:32:00,53.6,52.8,29.95,NNW,346,0.0,0.0,97,0.00,CLR,,0.15,WeatherDisplay:10.37,2013-05-09 10:32:00,
2013-05-09 06:37:00,53.8,53.0,29.96,NNW,346,0.0,0.0,97,0.00,CLR,,0.15,WeatherDisplay:10.37,2013-05-09 10:37:00,
2013-05-09 06:42:00,53.9,53.1,29.96,NNW,346,0.0,0.0,97,0.00,CLR,,0.15,WeatherDisplay:10.37,2013-05-09 10:42:00,
2013-05-09 06:47:00,54.2,53.4,29.97,NNW,346,0.0,0.0,97,0.00,CLR,,0.15,WeatherDisplay:10.37,2013-05-09 10:47:00,
2013-05-09 06:52:00,54.7,53.9,29.97,NNW,346,0.0,0.0,97,0.00,CLR,,0.15,WeatherDisplay:10.37,2013-05-09 10:52:00,
2013-05-09 06:57:00,55.3,54.5,29.97,NNW,346,0.0,0.0,97,0.00,CLR,,0.15,WeatherDisplay:10.37,2013-05-09 10:57:00,
2013-05-09 07:02:00,56.2,55.6,29.97,NNW,346,0.0,0.0,98,0.00,CLR,,0.15,WeatherDisplay:10.37,2013-05-09 11:02:00,
2013-05-09 07:07:00,57.0,56.4,29.96,NNW,346,0.0,0.0,98,0.00,CLR,,0.15,WeatherDisplay:10.37,2013-05-09 11:07:00,
2013-05-09 07:12:00,57.5,56.9,29.97,NNW,346,0.4,3.0,98,0.00,CLR,,0.15,WeatherDisplay:10.37,2013-05-09 11:12:00,
2013-05-09 07:17:00,58.1,57.5,29.97,NW,311,3.1,4.0,98,0.00,CLR,,0.15,WeatherDisplay:10.37,2013-05-09 11:17:00,
2013-05-09 07:22:00,57.6,57.0,29.97,WNW,284,2.5,4.6,98,0.00,CLR,,0.15,WeatherDisplay:10.37,2013-05-09 11:22:00,
2013-05-09 07:27:00,57.5,56.7,29.97,West,277,2.4,4.6,97,0.00,CLR,,0.15,WeatherDisplay:10.37,2013-05-09 11:27:00,
2013-05-09 07:32:00,57.5,56.7,29.97,West,277,3.0,4.6,97,0.00,OVC,,0.15,WeatherDisplay:10.37,2013-05-09 11:32:00,
2013-05-09 07:37:00,57.3,56.5,29.97,WNW,286,4.2,5.8,97,0.00,OVC,,0.15,WeatherDisplay:10.37,2013-05-09 11:37:00,
2013-05-09 07:42:00,57.2,56.4,29.98,WNW,296,3.8,4.6,97,0.00,OVC,,0.15,WeatherDisplay:10.37,2013-05-09 11:42:00,
2013-05-09 07:47:00,56.6,55.8,29.98,West,277,5.1,6.9,97,0.00,OVC,,0.15,WeatherDisplay:10.37,2013-05-09 11:47:00,
2013-05-09 07:52:00,56.5,55.7,29.98,WNW,292,4.9,9.0,97,0.00,OVC,,0.15,WeatherDisplay:10.37,2013-05-09 11:52:00,
2013-05-09 07:57:00,56.2,55.4,29.99,West,281,5.2,9.2,97,0.00,OVC,,0.15,WeatherDisplay:10.37,2013-05-09 11:57:00,
2013-05-09 08:02:00,56.2,55.4,29.99,West,278,3.4,4.6,97,0.00,OVC,,0.15,WeatherDisplay:10.37,2013-05-09 12:02:00,
2013-05-09 08:07:00,55.9,55.1,29.98,WNW,283,2.9,4.0,97,0.00,OVC,,0.15,WeatherDisplay:10.37,2013-05-09 12:07:00,
2013-05-09 08:12:00,55.9,55.3,29.98,WNW,286,2.6,3.5,98,0.00,OVC,,0.15,WeatherDisplay:10.37,2013-05-09 12:12:00,
2013-05-09 08:17:00,55.9,55.3,29.98,West,279,1.9,3.5,98,0.00,OVC,,0.15,WeatherDisplay:10.37,2013-05-09 12:17:00,
2013-05-09 08:22:00,56.0,55.4,29.98,NW,315,2.4,3.5,98,0.00,OVC,,0.15,WeatherDisplay:10.37,2013-05-09 12:22:00,
2013-05-09 08:27:00,56.0,55.4,29.98,WNW,286,0.9,2.3,98,0.00,OVC,,0.15,WeatherDisplay:10.37,2013-05-09 12:27:00,
2013-05-09 08:32:00,55.7,55.1,29.98,WNW,286,2.8,3.5,98,0.00,OVC,,0.15,WeatherDisplay:10.37,2013-05-09 12:32:00,
2013-05-09 08:37:00,55.9,55.3,29.98,WNW,286,2.4,3.5,98,0.00,OVC,,0.15,WeatherDisplay:10.37,2013-05-09 12:37:00,
2013-05-09 08:43:00,55.7,55.1,29.99,WNW,286,1.3,3.5,98,0.00,OVC,,0.15,WeatherDisplay:10.37,2013-05-09 12:43:00,
2013-05-09 08:48:00,55.9,55.3,29.99,WNW,286,0.0,0.0,98,0.00,OVC,,0.15,WeatherDisplay:10.37,2013-05-09 12:48:00,
2013-05-09 08:53:00,55.7,55.1,29.99,West,279,2.0,3.5,98,0.00,OVC,,0.15,WeatherDisplay:10.37,2013-05-09 12:53:00,
2013-05-09 08:58:00,55.9,55.3,29.99,West,279,2.0,3.5,98,0.00,OVC,,0.15,WeatherDisplay:10.37,2013-05-09 12:58:00,
2013-05-09 09:03:00,56.0,55.4,30.00,West,279,0.0,1.2,98,0.00,OVC,,0.15,WeatherDisplay:10.37,2013-05-09 13:03:00,
2013-05-09 09:08:00,56.0,55.4,30.00,West,279,2.1,3.5,98,0.00,OVC,,0.15,WeatherDisplay:10.37,2013-05-09 13:08:00,
2013-05-09 09:13:00,56.2,55.6,30.00,West,279,0.9,3.5,98,0.00,OVC,,0.15,WeatherDisplay:10.37,2013-05-09 13:13:00,
2013-05-09 09:18:00,56.2,55.6,30.00,WNW,285,2.7,4.6,98,0.00,OVC,,0.15,WeatherDisplay:10.37,2013-05-09 13:18:00,
2013-05-09 09:23:00,56.2,55.6,30.00,West,278,3.6,4.6,98,0.00,OVC,,0.15,WeatherDisplay:10.37,2013-05-09 13:23:00,
2013-05-09 09:28:00,56.2,55.6,30.00,West,278,4.4,5.8,98,0.00,OVC,,0.15,WeatherDisplay:10.37,2013-05-09 13:28:00,
2013-05-09 09:33:00,56.3,55.7,30.00,West,276,3.4,4.0,98,0.00,OVC,,0.15,WeatherDisplay:10.37,2013-05-09 13:33:00,
2013-05-09 09:38:00,56.2,55.6,30.00,WNW,283,2.5,3.5,98,0.00,OVC,,0.15,WeatherDisplay:10.37,2013-05-09 13:38:00,
2013-05-09 09:43:00,56.5,55.9,30.00,WNW,286,1.7,3.5,98,0.00,OVC,,0.15,WeatherDisplay:10.37,2013-05-09 13:43:00,
2013-05-09 09:48:00,56.9,56.3,30.01,West,275,0.0,0.0,98,0.00,OVC,,0.15,WeatherDisplay:10.37,2013-05-09 13:48:00,
2013-05-09 09:53:00,56.9,56.3,30.01,West,278,2.3,3.5,98,0.00,OVC,,0.15,WeatherDisplay:10.37,2013-05-09 13:53:00,
2013-05-09 09:58:00,56.9,56.3,30.01,WNW,286,2.0,3.5,98,0.00,OVC,,0.15,WeatherDisplay:10.37,2013-05-09 13:58:00,
2013-05-09 10:03:00,56.7,56.1,30.01,WNW,288,3.0,5.8,98,0.00,OVC,,0.15,WeatherDisplay:10.37,2013-05-09 14:03:00,
2013-05-09 10:08:00,57.2,56.6,30.01,WNW,291,1.6,3.5,98,0.00,OVC,,0.15,WeatherDisplay:10.37,2013-05-09 14:08:00,
2013-05-09 10:13:00,57.3,56.7,30.01,WNW,290,2.1,3.5,98,0.00,OVC,,0.15,WeatherDisplay:10.37,2013-05-09 14:13:00,
2013-05-09 10:18:00,57.2,56.6,30.01,West,268,1.9,3.5,98,0.00,OVC,,0.15,WeatherDisplay:10.37,2013-05-09 14:18:00,
2013-05-09 10:23:00,58.0,57.4,30.01,West,268,0.9,2.3,98,0.00,OVC,,0.15,WeatherDisplay:10.37,2013-05-09 14:23:00,
2013-05-09 10:28:00,57.5,56.9,30.01,West,277,0.5,2.3,98,0.00,OVC,,0.15,WeatherDisplay:10.37,2013-05-09 14:28:00,
2013-05-09 10:33:00,58.0,57.4,30.01,WSW,258,0.0,0.0,98,0.00,OVC,,0.15,WeatherDisplay:10.37,2013-05-09 14:33:00,
2013-05-09 10:38:00,58.9,58.3,30.01,SSW,192,0.0,2.3,98,0.00,OVC,,0.15,WeatherDisplay:10.37,2013-05-09 14:38:00,
2013-05-09 10:43:00,59.3,58.7,30.01,SSW,192,0.2,1.2,98,0.00,OVC,,0.15,WeatherDisplay:10.37,2013-05-09 14:43:00,
2013-05-09 10:48:00,59.2,58.3,30.01,SSW,192,0.6,3.5,97,0.00,OVC,,0.15,WeatherDisplay:10.37,2013-05-09 14:48:00,
2013-05-09 10:53:00,60.1,59.2,30.01,SSW,192,0.6,3.0,97,0.00,OVC,,0.15,WeatherDisplay:10.37,2013-05-09 14:53:00,
2013-05-09 10:58:00,59.3,57.9,30.01,South,191,2.9,4.0,95,0.00,OVC,,0.15,WeatherDisplay:10.37,2013-05-09 14:58:00,
2013-05-09 11:03:00,59.2,57.5,30.01,South,191,2.1,3.5,94,0.00,OVC,,0.15,WeatherDisplay:10.37,2013-05-09 15:03:00,
2013-05-09 11:08:00,58.9,56.9,30.01,South,187,3.0,3.5,93,0.00,OVC,,0.15,WeatherDisplay:10.37,2013-05-09 15:08:00,
2013-05-09 11:13:00,59.5,57.5,30.01,South,187,0.0,2.3,93,0.00,SCT,,0.15,WeatherDisplay:10.37,2013-05-09 15:13:00,
2013-05-09 11:18:00,59.6,57.0,30.01,South,187,0.6,3.5,91,0.00,SCT,,0.15,WeatherDisplay:10.37,2013-05-09 15:18:00,
2013-05-09 11:23:00,60.5,57.9,30.01,South,187,2.3,3.5,91,0.00,SCT,,0.15,WeatherDisplay:10.37,2013-05-09 15:23:00,
2013-05-09 11:28:00,60.5,56.9,30.00,South,187,2.9,4.6,88,0.00,SCT,,0.15,WeatherDisplay:10.37,2013-05-09 15:28:00,
2013-05-09 11:33:00,60.7,57.1,30.00,South,173,3.4,4.0,88,0.00,SCT,,0.15,WeatherDisplay:10.37,2013-05-09 15:33:00,
2013-05-09 11:38:00,60.5,56.6,30.00,SSE,161,2.0,3.0,87,0.00,SCT,,0.15,WeatherDisplay:10.37,2013-05-09 15:38:00,
2013-05-09 11:43:00,60.1,55.9,30.00,SSE,161,1.7,3.5,86,0.00,SCT,,0.15,WeatherDisplay:10.37,2013-05-09 15:43:00,
2013-05-09 11:48:00,60.7,56.8,30.00,SSE,161,3.2,4.0,87,0.00,SCT,,0.15,WeatherDisplay:10.37,2013-05-09 15:48:00,
2013-05-09 11:53:00,60.5,56.6,30.00,SSE,161,2.6,3.5,87,0.00,CLR,,0.15,WeatherDisplay:10.37,2013-05-09 15:53:00,
2013-05-09 11:58:00,60.5,56.3,30.00,SSE,159,4.4,5.8,86,0.00,CLR,,0.15,WeatherDisplay:10.37,2013-05-09 15:58:00,
2013-05-09 12:03:00,61.0,57.1,30.00,SSE,159,1.6,3.5,87,0.00,CLR,,0.15,WeatherDisplay:10.37,2013-05-09 16:03:00,
2013-05-09 12:08:00,60.5,56.0,30.00,SSE,159,3.8,4.6,85,0.00,CLR,,0.15,WeatherDisplay:10.37,2013-05-09 16:08:00,
2013-05-09 12:13:00,61.0,56.8,29.99,SSE,159,5.5,5.5,86,0.00,CLR,,0.15,WeatherDisplay:10.37,2013-05-09 16:13:00,
2013-05-09 12:18:00,61.8,57.6,29.99,SSE,159,4.5,5.8,86,0.00,CLR,,0.15,WeatherDisplay:10.37,2013-05-09 16:18:00,
2013-05-09 12:23:00,62.1,57.2,29.99,South,171,4.0,5.8,84,0.00,CLR,,0.15,WeatherDisplay:10.37,2013-05-09 16:23:00,
2013-05-09 12:28:00,62.6,57.7,29.99,SSE,165,4.4,4.6,84,0.00,CLR,,0.15,WeatherDisplay:10.37,2013-05-09 16:28:00,
2013-05-09 12:33:00,63.2,57.9,29.98,SSE,163,4.4,5.8,83,0.00,CLR,,0.15,WeatherDisplay:10.37,2013-05-09 16:33:00,
2013-05-09 12:38:00,63.9,58.6,29.98,SSE,163,2.9,4.0,83,0.00,CLR,,0.15,WeatherDisplay:10.37,2013-05-09 16:38:00,
2013-05-09 12:43:00,64.0,57.7,29.98,SSE,163,1.6,4.0,80,0.00,CLR,,0.15,WeatherDisplay:10.37,2013-05-09 16:43:00,
2013-05-09 12:48:00,64.7,58.7,29.98,SSE,163,2.9,5.0,81,0.00,CLR,,0.15,WeatherDisplay:10.37,2013-05-09 16:48:00,
2013-05-09 12:53:00,64.7,58.4,29.98,SSE,163,0.3,3.5,80,0.00,CLR,,0.15,WeatherDisplay:10.37,2013-05-09 16:53:00,
2013-05-09 12:58:00,65.2,58.2,29.98,SSE,165,1.4,3.0,78,0.00,CLR,,0.15,WeatherDisplay:10.37,2013-05-09 16:58:00,
2013-05-09 13:03:00,65.0,58.7,29.98,SSE,165,3.6,5.8,80,0.00,CLR,,0.15,WeatherDisplay:10.37,2013-05-09 17:03:00,
2013-05-09 13:08:00,65.0,58.7,29.98,SSE,162,4.0,4.6,80,0.00,CLR,,0.15,WeatherDisplay:10.37,2013-05-09 17:08:00,
2013-05-09 13:13:00,65.3,58.6,29.98,SSE,162,2.4,3.5,79,0.00,CLR,,0.15,WeatherDisplay:10.37,2013-05-09 17:13:00,
2013-05-09 13:18:00,66.0,58.9,29.98,SSE,162,0.0,1.2,78,0.00,CLR,,0.15,WeatherDisplay:10.37,2013-05-09 17:18:00,
2013-05-09 13:23:00,66.0,56.3,29.98,WNW,298,2.3,3.5,71,0.00,CLR,,0.15,WeatherDisplay:10.37,2013-05-09 17:23:00,
2013-05-09 13:28:00,66.6,58.1,29.98,SSW,200,0.3,3.0,74,0.00,CLR,,0.15,WeatherDisplay:10.37,2013-05-09 17:28:00,
2013-05-09 13:33:00,66.9,58.0,29.98,SSW,200,0.0,1.2,73,0.00,CLR,,0.15,WeatherDisplay:10.37,2013-05-09 17:33:00,
2013-05-09 13:38:00,67.1,59.6,29.97,SSE,159,3.2,4.0,77,0.00,CLR,,0.15,WeatherDisplay:10.37,2013-05-09 17:38:00,
2013-05-09 13:43:00,66.3,58.9,29.97,SSE,163,4.0,4.6,77,0.00,CLR,,0.15,WeatherDisplay:10.37,2013-05-09 17:43:00,
2013-05-09 13:48:00,66.1,57.6,29.97,SSE,166,5.3,9.2,74,0.00,CLR,,0.15,WeatherDisplay:10.37,2013-05-09 17:48:00,
2013-05-09 13:53:00,66.0,56.7,29.98,South,172,3.7,4.6,72,0.00,CLR,,0.15,WeatherDisplay:10.37,2013-05-09 17:53:00,
2013-05-09 13:58:00,66.1,58.3,29.98,SSE,163,4.5,5.8,76,0.00,CLR,,0.15,WeatherDisplay:10.37,2013-05-09 17:58:00,
2013-05-09 14:03:00,66.3,58.5,29.98,SSE,151,4.9,5.8,76,0.00,CLR,,0.15,WeatherDisplay:10.37,2013-05-09 18:03:00,
2013-05-09 14:08:00,66.3,58.1,29.97,SSE,155,4.9,5.8,75,0.00,CLR,,0.15,WeatherDisplay:10.37,2013-05-09 18:08:00,
2013-05-09 14:13:00,66.3,57.8,29.97,SSE,160,5.5,6.9,74,0.00,CLR,,0.15,WeatherDisplay:10.37,2013-05-09 18:13:00,
2013-05-09 14:19:00,66.8,57.9,29.97,SSE,155,5.8,6.9,73,0.00,CLR,,0.15,WeatherDisplay:10.37,2013-05-09 18:19:00,
2013-05-09 14:24:00,66.8,57.9,29.97,SSE,159,5.2,5.8,73,0.00,CLR,,0.15,WeatherDisplay:10.37,2013-05-09 18:24:00,
2013-05-09 14:29:00,66.9,58.3,29.97,SSE,161,5.1,5.8,74,0.00,CLR,,0.15,WeatherDisplay:10.37,2013-05-09 18:29:00,
2013-05-09 14:34:00,67.8,58.4,29.97,SSE,161,4.3,5.0,72,0.00,SCT,,0.15,WeatherDisplay:10.37,2013-05-09 18:34:00,
2013-05-09 14:39:00,67.9,58.9,29.97,SSE,168,4.1,5.8,73,0.00,SCT,,0.15,WeatherDisplay:10.37,2013-05-09 18:39:00,
2013-05-09 14:44:00,67.9,58.1,29.97,SSE,168,3.2,4.6,71,0.00,SCT,,0.15,WeatherDisplay:10.37,2013-05-09 18:44:00,
2013-05-09 14:49:00,68.3,59.3,29.97,SSE,159,4.7,5.8,73,0.00,SCT,,0.15,WeatherDisplay:10.37,2013-05-09 18:49:00,
2013-05-09 14:54:00,68.3,58.5,29.96,SSE,160,5.0,6.0,71,0.00,CLR,,0.15,WeatherDisplay:10.37,2013-05-09 18:54:00,
2013-05-09 14:59:00,68.8,58.6,29.96,SSE,157,4.9,6.9,70,0.00,CLR,,0.15,WeatherDisplay:10.37,2013-05-09 18:59:00,
2013-05-09 15:04:00,68.8,58.2,29.96,South,169,4.9,5.8,69,0.00,CLR,,0.15,WeatherDisplay:10.37,2013-05-09 19:04:00,
2013-05-09 15:09:00,68.1,58.3,29.96,SSE,164,4.3,6.9,71,0.00,CLR,,0.15,WeatherDisplay:10.37,2013-05-09 19:09:00,
2013-05-09 15:14:00,68.3,58.5,29.95,SSE,164,3.7,4.6,71,0.00,CLR,,0.15,WeatherDisplay:10.37,2013-05-09 19:14:00,
2013-05-09 15:19:00,69.1,59.3,29.95,SSE,159,4.4,5.8,71,0.00,CLR,,0.15,WeatherDisplay:10.37,2013-05-09 19:19:00,
2013-05-09 15:24:00,69.6,58.6,29.95,SSE,167,4.0,4.6,68,0.00,CLR,,0.15,WeatherDisplay:10.37,2013-05-09 19:24:00,
2013-05-09 15:29:00,69.3,58.7,29.96,SSE,167,3.6,4.6,69,0.00,CLR,,0.15,WeatherDisplay:10.37,2013-05-09 19:29:00,
2013-05-09 15:34:00,68.6,58.8,29.96,South,169,3.1,5.8,71,0.00,CLR,,0.15,WeatherDisplay:10.37,2013-05-09 19:34:00,
2013-05-09 15:39:00,67.9,58.9,29.96,South,169,4.0,5.8,73,0.00,CLR,,0.15,WeatherDisplay:10.37,2013-05-09 19:39:00,
2013-05-09 15:44:00,67.4,58.8,29.95,SSE,168,4.1,4.6,74,0.00,CLR,,0.15,WeatherDisplay:10.37,2013-05-09 19:44:00,
2013-05-09 15:49:00,67.8,60.0,29.95,SSE,168,3.5,4.6,76,0.00,CLR,,0.15,WeatherDisplay:10.37,2013-05-09 19:49:00,
2013-05-09 15:54:00,68.1,59.9,29.95,SSE,168,4.2,5.0,75,0.00,CLR,,0.15,WeatherDisplay:10.37,2013-05-09 19:54:00,
2013-05-09 15:59:00,68.6,60.0,29.95,SSE,168,3.4,4.0,74,0.00,CLR,,0.15,WeatherDisplay:10.37,2013-05-09 19:59:00,
2013-05-09 16:04:00,69.4,60.4,29.95,SSE,165,4.9,6.0,73,0.00,CLR,,0.15,WeatherDisplay:10.37,2013-05-09 20:04:00,
2013-05-09 16:09:00,69.3,59.5,29.95,SSE,165,5.1,6.0,71,0.00,CLR,,0.15,WeatherDisplay:10.37,2013-05-09 20:09:00,
2013-05-09 16:14:00,69.3,60.3,29.95,SSE,165,4.1,5.8,73,0.00,SCT,,0.15,WeatherDisplay:10.37,2013-05-09 20:14:00,
2013-05-09 16:19:00,69.9,60.1,29.95,South,171,4.3,6.9,71,0.00,SCT,,0.15,WeatherDisplay:10.37,2013-05-09 20:19:00,
2013-05-09 16:24:00,70.3,61.2,29.95,South,175,4.6,4.6,73,0.00,SCT,,0.15,WeatherDisplay:10.37,2013-05-09 20:24:00,
2013-05-09 16:29:00,70.1,59.9,29.95,SSE,167,4.6,6.9,70,0.00,SCT,,0.15,WeatherDisplay:10.37,2013-05-09 20:29:00,
2013-05-09 16:34:00,69.4,59.6,29.95,South,175,4.1,4.6,71,0.00,SCT,,0.15,WeatherDisplay:10.37,2013-05-09 20:34:00,
2013-05-09 16:39:00,69.1,60.1,29.95,South,175,3.6,4.6,73,0.00,SCT,,0.15,WeatherDisplay:10.37,2013-05-09 20:39:00,
2013-05-09 16:44:00,68.9,59.9,29.95,South,175,2.7,3.5,73,0.00,SCT,,0.15,WeatherDisplay:10.37,2013-05-09 20:44:00,
2013-05-09 16:49:00,68.8,59.8,29.95,South,175,2.7,4.6,73,0.00,SCT,,0.15,WeatherDisplay:10.37,2013-05-09 20:49:00,
2013-05-09 16:54:00,68.8,59.8,29.95,South,175,4.0,4.0,73,0.00,SCT,,0.15,WeatherDisplay:10.37,2013-05-09 20:54:00,
2013-05-09 16:59:00,68.8,59.8,29.95,South,175,3.2,4.0,73,0.00,SCT,,0.15,WeatherDisplay:10.37,2013-05-09 20:59:00,
2013-05-09 17:04:00,68.6,60.0,29.95,South,175,2.5,3.5,74,0.00,SCT,,0.15,WeatherDisplay:10.37,2013-05-09 21:04:00,
2013-05-09 17:09:00,68.4,59.8,29.95,South,175,3.3,4.0,74,0.00,SCT,,0.15,WeatherDisplay:10.37,2013-05-09 21:09:00,
2013-05-09 17:14:00,68.3,59.7,29.95,South,175,3.5,4.0,74,0.00,SCT,,0.15,WeatherDisplay:10.37,2013-05-09 21:14:00,
2013-05-09 17:19:00,68.1,59.5,29.95,South,175,4.1,4.6,74,0.00,SCT,,0.15,WeatherDisplay:10.37,2013-05-09 21:19:00,
2013-05-09 17:24:00,68.4,59.8,29.95,South,175,3.4,3.5,74,0.00,SCT,,0.15,WeatherDisplay:10.37,2013-05-09 21:24:00,
2013-05-09 17:29:00,68.8,59.8,29.95,SSE,166,4.3,4.6,73,0.00,SCT,,0.15,WeatherDisplay:10.37,2013-05-09 21:29:00,
2013-05-09 17:34:00,68.8,59.4,29.95,SSE,166,2.4,3.5,72,0.00,SCT,,0.15,WeatherDisplay:10.37,2013-05-09 21:34:00,
2013-05-09 17:39:00,68.8,59.8,29.95,SSE,166,2.7,4.0,73,0.00,SCT,,0.15,WeatherDisplay:10.37,2013-05-09 21:39:00,
2013-05-09 17:44:00,69.1,60.5,29.95,SSE,166,0.0,3.5,74,0.00,SCT,,0.15,WeatherDisplay:10.37,2013-05-09 21:44:00,
2013-05-09 17:49:00,69.3,60.7,29.95,SSE,166,0.7,2.3,74,0.00,SCT,,0.15,WeatherDisplay:10.37,2013-05-09 21:49:00,
2013-05-09 17:54:00,69.3,61.0,29.95,SSE,166,0.4,2.3,75,0.00,SCT,,0.15,WeatherDisplay:10.37,2013-05-09 21:54:00,
2013-05-09 17:59:00,69.3,60.7,29.95,SSE,166,0.3,2.3,74,0.00,SCT,,0.15,WeatherDisplay:10.37,2013-05-09 21:59:00,
2013-05-09 18:04:00,69.6,60.6,29.95,SSE,166,4.6,5.0,73,0.00,SCT,,0.15,WeatherDisplay:10.37,2013-05-09 22:04:00,
2013-05-09 18:09:00,69.6,59.8,29.95,SSE,166,3.9,4.6,71,0.00,SCT,,0.15,WeatherDisplay:10.37,2013-05-09 22:09:00,
2013-05-09 18:14:00,69.4,59.5,29.95,SSE,167,5.0,10.0,71,0.00,SCT,SCT,0.15,WeatherDisplay:10.37,2013-05-09 22:14:00,
2013-05-09 18:19:00,68.8,59.4,29.95,SSE,168,2.2,4.0,72,0.00,SCT,,0.15,WeatherDisplay:10.37,2013-05-09 22:19:00,
2013-05-09 18:24:00,68.6,59.6,29.95,SSE,168,3.0,10.0,73,0.00,SCT,SCT,0.15,WeatherDisplay:10.37,2013-05-09 22:24:00,
2013-05-09 18:29:00,68.6,60.0,29.95,SSE,168,2.1,3.5,74,0.00,SCT,,0.15,WeatherDisplay:10.37,2013-05-09 22:29:00,
2013-05-09 18:34:00,68.4,59.8,29.95,SSE,168,1.8,3.5,74,0.00,CLR,,0.15,WeatherDisplay:10.37,2013-05-09 22:34:00,
2013-05-09 18:39:00,68.1,59.5,29.95,SSE,168,1.4,3.0,74,0.00,CLR,,0.15,WeatherDisplay:10.37,2013-05-09 22:39:00,
2013-05-09 18:44:00,67.8,59.6,29.95,SSE,168,0.0,10.0,75,0.00,CLR,CLR,0.15,WeatherDisplay:10.37,2013-05-09 22:44:00,
2013-05-09 18:49:00,67.6,60.1,29.95,SSE,168,0.0,0.0,77,0.00,CLR,,0.15,WeatherDisplay:10.37,2013-05-09 22:49:00,
2013-05-09 18:54:00,67.4,59.9,29.95,SSE,168,2.0,10.0,77,0.00,CLR,CLR,0.15,WeatherDisplay:10.37,2013-05-09 22:54:00,
2013-05-09 18:59:00,67.4,59.9,29.95,SSE,168,1.6,3.5,77,0.00,CLR,,0.15,WeatherDisplay:10.37,2013-05-09 22:59:00,
2013-05-09 19:04:00,67.6,59.8,29.95,SSE,168,2.9,3.5,76,0.00,CLR,,0.15,WeatherDisplay:10.37,2013-05-09 23:04:00,
2013-05-09 19:09:00,67.6,59.8,29.95,SSE,168,2.2,3.5,76,0.00,CLR,,0.15,WeatherDisplay:10.37,2013-05-09 23:09:00,
2013-05-09 19:14:00,67.6,59.8,29.95,SSE,168,2.0,3.0,76,0.00,CLR,CLR,0.15,WeatherDisplay:10.37,2013-05-09 23:14:00,
2013-05-09 19:19:00,67.6,60.1,29.96,SSE,168,1.6,3.5,77,0.00,CLR,,0.15,WeatherDisplay:10.37,2013-05-09 23:19:00,
2013-05-09 19:24:00,67.6,60.1,29.96,SSE,168,0.0,2.0,77,0.00,CLR,CLR,0.15,WeatherDisplay:10.37,2013-05-09 23:24:00,
2013-05-09 19:29:00,67.6,60.5,29.96,SSE,168,0.0,0.0,78,0.00,CLR,,0.15,WeatherDisplay:10.37,2013-05-09 23:29:00,
2013-05-09 19:34:00,67.6,61.2,29.97,SSE,168,0.0,10.0,80,0.00,CLR,CLR,0.15,WeatherDisplay:10.37,2013-05-09 23:34:00,
2013-05-09 19:39:00,67.3,60.9,29.97,SSE,168,0.0,0.0,80,0.00,CLR,,0.15,WeatherDisplay:10.37,2013-05-09 23:39:00,
2013-05-09 19:44:00,67.1,60.7,29.97,SSE,168,0.0,0.0,80,0.00,CLR,,0.15,WeatherDisplay:10.37,2013-05-09 23:44:00,
2013-05-09 19:49:00,66.8,60.1,29.97,SSE,168,1.6,2.3,79,0.00,CLR,,0.15,WeatherDisplay:10.37,2013-05-09 23:49:00,
2013-05-09 19:54:00,66.8,60.4,29.97,SSE,168,0.0,0.0,80,0.00,SCT,,0.15,WeatherDisplay:10.37,2013-05-09 23:54:00,
2013-05-09 19:59:00,66.8,60.8,29.97,SSE,168,0.0,0.0,81,0.00,SCT,,0.15,WeatherDisplay:10.37,2013-05-09 23:59:00,
2013-05-09 20:04:00,66.6,60.6,29.98,SSE,168,0.0,0.0,81,0.00,SCT,,0.15,WeatherDisplay:10.37,2013-05-10 00:04:00,
2013-05-09 20:09:00,66.4,60.7,29.98,SSE,168,0.0,10.0,82,0.00,SCT,SCT,0.15,WeatherDisplay:10.37,2013-05-10 00:09:00,
2013-05-09 20:14:00,66.0,60.7,29.98,SSE,168,0.0,0.0,83,0.00,SCT,,0.15,WeatherDisplay:10.37,2013-05-10 00:14:00,
2013-05-09 20:19:00,65.6,60.3,29.98,SSE,168,0.0,10.0,83,0.00,SCT,SCT,0.15,WeatherDisplay:10.37,2013-05-10 00:19:00,
2013-05-09 20:24:00,65.3,60.3,29.98,SSE,168,0.0,0.0,84,0.00,SCT,,0.15,WeatherDisplay:10.37,2013-05-10 00:24:00,
2013-05-09 20:29:00,65.1,60.2,29.98,SSE,168,0.0,10.0,84,0.00,SCT,SCT,0.15,WeatherDisplay:10.37,2013-05-10 00:29:00,
2013-05-09 20:34:00,64.8,60.2,29.98,SSE,168,0.0,0.0,85,0.00,SCT,,0.15,WeatherDisplay:10.37,2013-05-10 00:34:00,
2013-05-09 20:39:00,64.7,60.1,29.98,SSE,168,0.0,0.0,85,0.00,SCT,,0.15,WeatherDisplay:10.37,2013-05-10 00:39:00,
2013-05-09 20:44:00,64.5,60.2,29.98,SSE,168,0.0,0.0,86,0.00,SCT,,0.15,WeatherDisplay:10.37,2013-05-10 00:44:00,
2013-05-09 20:49:00,64.3,60.0,29.98,SSE,168,0.0,10.0,86,0.00,SCT,SCT,0.15,WeatherDisplay:10.37,2013-05-10 00:49:00,
2013-05-09 20:54:00,64.2,59.9,29.98,SSE,168,0.0,0.0,86,0.00,CLR,,0.15,WeatherDisplay:10.37,2013-05-10 00:54:00,
2013-05-09 20:59:00,64.2,59.9,29.98,SSE,168,0.0,0.0,86,0.00,CLR,,0.15,WeatherDisplay:10.37,2013-05-10 00:59:00,
2013-05-09 21:04:00,64.2,59.9,29.98,SSE,168,0.0,0.0,86,0.00,CLR,,0.15,WeatherDisplay:10.37,2013-05-10 01:04:00,
2013-05-09 21:09:00,64.2,60.2,29.98,SSE,168,0.0,0.0,87,0.00,CLR,,0.15,WeatherDisplay:10.37,2013-05-10 01:09:00,
2013-05-09 21:14:00,64.3,60.3,29.98,SSE,168,0.0,0.0,87,0.00,SCT,,0.15,WeatherDisplay:10.37,2013-05-10 01:14:00,
2013-05-09 21:19:00,64.8,60.5,29.99,SSE,168,0.0,0.0,86,0.00,SCT,,0.15,WeatherDisplay:10.37,2013-05-10 01:19:00,
2013-05-09 21:24:00,65.2,60.6,29.99,SSE,168,0.5,1.2,85,0.00,SCT,,0.15,WeatherDisplay:10.37,2013-05-10 01:24:00,
2013-05-09 21:30:00,65.6,60.3,29.99,West,260,1.6,3.5,83,0.00,SCT,,0.15,WeatherDisplay:10.37,2013-05-10 01:30:00,
2013-05-09 21:35:00,65.8,60.2,29.99,West,260,0.7,2.3,82,0.00,SCT,,0.15,WeatherDisplay:10.37,2013-05-10 01:35:00,
2013-05-09 21:40:00,66.0,60.0,30.00,West,260,0.0,1.2,81,0.00,SCT,,0.15,WeatherDisplay:10.37,2013-05-10 01:40:00,
2013-05-09 21:45:00,66.0,59.7,30.00,West,260,1.3,2.3,80,0.00,SCT,,0.15,WeatherDisplay:10.37,2013-05-10 01:45:00,
2013-05-09 21:50:00,66.0,59.7,30.00,West,260,0.3,3.0,80,0.00,SCT,,0.15,WeatherDisplay:10.37,2013-05-10 01:50:00,
2013-05-09 21:55:00,66.3,59.6,30.00,West,261,1.8,3.5,79,0.00,CLR,,0.15,WeatherDisplay:10.37,2013-05-10 01:55:00,
2013-05-09 22:00:00,66.4,59.3,30.00,WSW,256,2.4,3.5,78,0.00,CLR,,0.15,WeatherDisplay:10.37,2013-05-10 02:00:00,
2013-05-09 22:05:00,66.4,59.7,30.00,West,275,2.3,3.5,79,0.00,CLR,,0.15,WeatherDisplay:10.37,2013-05-10 02:05:00,
2013-05-09 22:10:00,66.3,59.6,30.00,West,275,1.5,2.3,79,0.00,CLR,,0.15,WeatherDisplay:10.37,2013-05-10 02:10:00,
2013-05-09 22:15:00,66.1,59.4,30.01,West,275,0.0,0.0,79,0.00,CLR,,0.15,WeatherDisplay:10.37,2013-05-10 02:15:00,
2013-05-09 22:20:00,66.0,59.7,30.01,West,275,0.0,0.0,80,0.00,CLR,,0.15,WeatherDisplay:10.37,2013-05-10 02:20:00,
2013-05-09 22:25:00,65.8,59.5,30.00,West,275,0.0,0.0,80,0.00,CLR,,0.15,WeatherDisplay:10.37,2013-05-10 02:25:00,
2013-05-09 22:30:00,65.5,59.2,30.00,West,275,0.0,0.0,80,0.00,CLR,,0.15,WeatherDisplay:10.37,2013-05-10 02:30:00,
2013-05-09 22:35:00,65.3,59.3,30.00,West,275,0.0,0.0,81,0.00,CLR,,0.15,WeatherDisplay:10.37,2013-05-10 02:35:00,
2013-05-09 22:40:00,65.0,59.0,30.00,West,275,0.0,0.0,81,0.00,CLR,,0.15,WeatherDisplay:10.37,2013-05-10 02:40:00,
2013-05-09 22:45:00,64.7,59.1,30.00,West,275,0.0,0.0,82,0.00,CLR,,0.15,WeatherDisplay:10.37,2013-05-10 02:45:00,
2013-05-09 22:50:00,64.3,59.0,30.00,West,275,0.0,0.0,83,0.00,CLR,,0.15,WeatherDisplay:10.37,2013-05-10 02:50:00,
2013-05-09 22:55:00,64.0,58.7,30.00,West,275,0.0,0.0,83,0.00,CLR,,0.15,WeatherDisplay:10.37,2013-05-10 02:55:00,
2013-05-09 23:00:00,63.9,59.0,30.00,West,275,0.0,0.0,84,0.00,CLR,,0.15,WeatherDisplay:10.37,2013-05-10 03:00:00,
2013-05-09 23:05:00,63.7,59.1,30.00,West,275,0.0,0.0,85,0.00,CLR,,0.15,WeatherDisplay:10.37,2013-05-10 03:05:00,
2013-05-09 23:10:00,63.9,59.6,30.00,SE,144,2.8,3.5,86,0.00,CLR,,0.15,WeatherDisplay:10.37,2013-05-10 03:10:00,
2013-05-09 23:15:00,63.7,59.8,30.00,SE,144,1.0,2.3,87,0.00,CLR,,0.15,WeatherDisplay:10.37,2013-05-10 03:15:00,
2013-05-09 23:20:00,63.2,59.6,30.00,SE,144,0.0,0.0,88,0.00,CLR,,0.15,WeatherDisplay:10.37,2013-05-10 03:20:00,
2013-05-09 23:25:00,62.9,59.3,30.00,SE,144,0.0,10.0,88,0.00,CLR,,0.15,WeatherDisplay:10.37,2013-05-10 03:25:00,
2013-05-09 23:30:00,62.7,59.4,30.00,SE,144,0.0,10.0,89,0.00,CLR,,0.15,WeatherDisplay:10.37,2013-05-10 03:30:00,
2013-05-09 23:35:00,62.4,59.1,30.00,SE,144,0.0,0.0,89,0.00,CLR,,0.15,WeatherDisplay:10.37,2013-05-10 03:35:00,
2013-05-09 23:40:00,62.4,59.4,30.00,SE,144,0.0,0.0,90,0.00,CLR,,0.15,WeatherDisplay:10.37,2013-05-10 03:40:00,
2013-05-09 23:45:00,62.4,59.4,30.00,SE,144,0.0,0.0,90,0.00,CLR,,0.15,WeatherDisplay:10.37,2013-05-10 03:45:00,
2013-05-09 23:50:00,62.3,59.3,30.00,SE,144,0.0,0.0,90,0.00,CLR,,0.15,WeatherDisplay:10.37,2013-05-10 03:50:00,
2013-05-09 23:55:00,62.3,59.6,30.01,SE,144,0.0,0.0,91,0.00,CLR,,0.15,WeatherDisplay:10.37,2013-05-10 03:55:00,